Lapse_Rate
8.9 9.1 8.1 8.1 5.8 4.5 4.0 3.5 2.7 2.7 3.5 4.9 6.6 7.3 7.2 5.8 6.1 4.6 4.0 5.6 3.3 3.4 5.5 5.9 4.6 4.3 4.0 6.0 7.0 8.0 4.8 6.1
9.1 9.0 9.1 8.8 6.4 4.6 4.0 3.6 3.1 3.4 4.6 4.5 4.7 5.3 5.7 5.1 3.7 3.1 3.5 3.8 4.4 5.2 8.0 8.4 8.1 7.1 6.3 5.7 4.7 5.8 7.0 4.9
8.7 9.0 9.2 8.4 6.8 4.7 4.8 4.9 5.1 5.1 6.0 5.5 4.4 4.4 5.4 4.7 3.4 3.1 3.0 3.2 3.4 4.8 7.1 8.0 8.6 7.1 6.8 7.2 7.0 7.1 6.5 7.0
8.5 8.7 8.8 8.2 5.9 4.5 5.4 6.5 8.4 7.2 4.6 6.3 5.2 6.4 6.6 4.5 3.8 3.7 3.5 3.9 4.1 4.2 4.8 6.2 6.9 6.6 6.6 6.8 7.0 6.1 6.3 7.0
8.6 8.7 8.8 8.6 6.2 6.6 6.6 7.0 8.3 6.3 4.3 4.8 4.5 6.1 5.8 4.9 3.8 4.3 5.1 4.6 4.4 3.9 3.8 4.9 6.3 6.2 5.6 5.7 6.7 6.5 6.3 5.4
8.6 8.7 8.9 8.8 7.4 8.4 8.0 8.8 9.5 7.8 6.6 4.3 5.9 6.6 5.7 5.4 4.5 4.0 5.5 6.3 7.8 6.5 5.0 4.8 5.4 5.5 5.2 5.1 4.8 5.0 4.8 4.8
8.7 8.8 8.9 8.9 8.5 9.5 9.2 9.3 9.5 8.8 7.2 7.2 5.0 5.5 5.3 5.6 5.2 6.1 5.9 7.2 7.9 6.8 4.8 4.1 5.6 6.7 5.2 5.1 4.3 5.0 4.8 4.1
8.5 8.6 8.7 8.7 8.5 9.0 8.6 8.8 9.1 7.6 6.3 7.3 8.0 5.7 5.2 5.5 5.4 5.5 3.9 3.6 4.4 4.3 4.4 4.2 4.6 6.0 6.8 6.5 5.3 4.9 5.2 4.6
8.4 8.5 8.6 8.7 7.8 8.1 8.2 7.8 8.8 7.0 6.7 8.8 9.4 8.3 6.3 6.8 6.1 5.4 4.0 3.6 3.6 3.8 3.8 4.9 4.3 5.7 6.5 6.1 6.4 6.4 6.3 5.7
8.2 8.3 8.0 7.7 7.0 7.4 7.4 6.5 8.2 6.8 6.9 9.5 9.5 9.3 7.8 6.3 5.6 5.6 4.4 4.1 4.2 3.6 3.7 4.2 4.1 4.5 7.9 6.8 7.3 6.2 5.8 5.9
8.0 5.3 5.0 5.4 5.2 5.6 5.8 5.3 5.9 5.7 4.9 9.5 9.6 9.3 9.0 7.8 6.5 4.9 4.5 4.6 3.5 3.3 3.6 4.0 4.5 4.2 7.5 7.1 7.1 6.5 5.5 6.9
5.7 3.8 3.4 3.6 3.7 4.7 5.1 4.0 4.4 3.7 4.1 7.4 9.2 8.0 8.5 8.5 8.5 7.5 6.2 6.5 4.8 3.8 3.4 4.2 3.4 5.3 7.1 7.7 7.0 6.8 5.4 4.6
6.1 5.2 3.9 3.4 3.2 3.1 3.1 3.9 4.1 3.3 4.2 4.8 7.5 6.2 6.2 7.7 8.6 7.0 6.3 8.0 6.9 4.7 4.2 5.0 3.9 4.3 5.9 7.4 7.6 7.4 5.9 4.6
4.2 4.7 4.2 4.4 3.7 3.3 3.0 4.0 3.6 3.7 4.3 4.3 5.2 5.1 5.1 5.2 6.5 6.7 5.6 6.5 6.2 4.7 4.6 4.5 6.5 5.1 4.5 4.8 7.9 7.5 6.7 5.5
5.5 5.1 4.7 4.1 4.0 4.0 3.9 4.3 3.9 3.7 3.8 3.8 4.1 5.3 4.6 4.9 6.6 7.6 5.1 5.2 5.1 4.5 4.7 4.6 6.7 6.5 5.3 4.1 5.5 6.4 6.4 6.7
6.6 5.9 6.1 5.6 5.1 5.1 7.6 5.9 6.6 5.6 5.2 5.3 5.9 8.3 5.2 5.4 6.0 8.0 6.9 5.7 6.0 5.0 5.0 4.8 5.1 5.5 5.5 3.9 4.2 5.7 4.4 4.6
8.1 8.3 8.6 8.6 8.8 8.9 9.1 8.6 7.7 8.6 8.3 8.2 8.9 8.8 9.6 9.5 9.4 9.2 9.5 8.2 7.3 5.6 5.2 5.2 4.6 4.7 4.9 4.0 4.2 5.7 4.8 3.1
8.3 8.5 8.6 8.7 8.9 9.0 9.0 9.0 8.7 9.4 9.3 9.3 9.4 9.7 9.6 9.7 9.8 9.8 9.7 9.6 9.7 8.4 6.4 5.8 5.2 4.0 4.0 3.8 4.5 4.8 5.8 4.1
8.5 8.6 8.8 8.9 9.1 9.2 8.8 8.4 9.2 9.3 9.1 9.4 9.5 9.5 9.6 9.7 9.7 9.7 9.8 9.9 9.8 9.8 9.6 8.7 8.6 5.0 3.5 2.9 5.3 6.3 6.4 4.9
Wind_Speed
5 5 6 7 8 8 9 9 11 12 10 10 9 8 8 10 12 14 17 17 18 18 16 17 18 11 12 12 16 13 11 11
3 4 5 6 7 9 10 11 12 10 8 8 8 9 7 8 13 17 17 18 18 17 14 13 14 12 13 13 12 15 13 11
3 3 4 6 7 9 9 11 11 9 8 7 7 7 6 8 13 16 19 20 19 18 16 12 13 10 13 13 14 11 12 11
3 3 5 6 8 8 9 9 10 9 11 8 8 7 8 9 11 11 17 19 18 18 19 16 13 12 10 13 13 14 12 14
2 3 4 7 7 6 8 8 9 10 12 9 11 9 9 9 9 10 11 18 18 18 19 19 14 10 12 11 12 13 12 12
3 4 5 7 6 6 7 8 8 9 10 10 8 9 8 8 9 13 12 13 15 16 19 18 14 11 13 15 15 14 10 11
4 4 4 6 6 6 6 7 8 10 10 10 10 11 11 9 11 9 10 10 9 16 20 18 17 14 14 13 16 17 14 13
4 4 5 5 6 6 6 8 9 10 10 10 10 11 11 11 12 10 13 11 12 15 17 15 13 16 15 14 15 16 16 13
5 4 4 4 5 6 7 8 8 10 10 10 10 11 8 8 10 10 9 11 12 18 16 18 18 20 15 16 13 12 14 13
4 4 4 4 5 7 8 8 9 9 10 9 10 10 11 10 12 12 10 12 12 16 19 17 17 17 16 16 12 15 14 14
4 3 4 5 7 7 7 8 9 9 10 10 10 11 11 11 11 13 14 13 16 16 18 18 18 18 17 16 13 14 15 11
4 3 3 5 6 7 6 7 8 8 8 10 11 11 12 11 11 12 12 13 13 16 17 18 18 19 18 16 16 16 15 14
2 3 3 4 5 6 6 6 7 7 8 9 11 12 12 12 12 13 14 13 15 15 15 17 18 19 18 17 16 15 16 16
3 2 2 3 4 5 5 5 7 7 8 9 11 12 12 12 12 12 12 12 13 14 15 16 17 19 19 18 17 16 16 16
5 3 1 3 3 3 4 5 5 7 8 9 10 10 11 10 11 10 11 11 12 13 13 15 15 18 18 17 17 17 17 17
6 4 2 3 2 2 3 5 5 7 7 8 9 10 9 9 9 9 9 10 11 12 13 15 14 14 14 17 16 17 17 18
8 6 4 3 3 4 4 6 7 7 8 8 9 11 10 8 8 8 9 10 10 12 13 12 15 12 29 26 19 13 15 18
8 6 4 3 4 3 5 7 7 7 8 9 10 10 10 10 9 10 11 11 11 12 11 12 13 17 30 28 22 11 13 15
9 6 5 4 4 5 6 7 7 7 9 9 8 10 10 9 10 11 11 11 12 12 14 15 14 15 30 30 20 10 11 15
Wind_Direction
46 27 21 11 20 12 8 13 10 2 4 358 358 357 6 1 3 2 354 354 349 342 331 328 323 318 316 311 310 297 292 273
60 36 26 13 23 14 11 9 9 4 3 359 354 354 1 0 2 358 354 352 355 342 334 325 326 322 313 302 298 304 287 281
79 35 24 27 21 17 11 10 7 7 356 353 348 344 341 352 356 353 355 350 352 344 342 333 331 320 320 314 314 301 290 274
104 43 26 21 22 17 12 7 4 9 356 357 350 344 348 359 356 350 346 347 350 348 344 336 331 323 317 311 306 302 300 299
94 35 33 26 21 13 12 7 10 10 8 1 357 354 353 352 345 339 335 344 346 350 343 338 332 328 316 318 317 308 302 298
112 47 28 31 17 15 11 4 13 13 11 5 358 356 347 345 343 338 339 338 344 350 345 338 336 332 326 320 314 307 300 293
107 69 41 33 21 15 10 7 19 14 9 8 1 356 352 346 348 341 339 342 344 354 346 344 339 332 329 322 314 306 300 291
106 67 48 28 15 12 15 14 14 13 7 1 2 1 357 348 348 345 344 344 348 347 347 346 344 335 331 324 314 306 301 293
107 73 55 28 16 19 18 12 11 14 2 357 8 7 1 352 349 349 349 348 341 343 343 344 346 342 336 329 321 311 306 301
98 63 37 20 17 21 15 11 15 11 1 358 8 6 5 357 351 355 354 348 341 342 345 347 349 348 341 336 321 318 313 307
104 50 17 10 15 15 18 21 9 8 4 1 7 5 2 360 358 357 354 349 350 347 348 350 354 351 344 340 333 333 330 329
124 84 34 21 12 13 14 24 10 9 9 360 10 6 4 3 1 359 353 351 356 355 353 352 355 353 349 346 344 348 343 345
122 74 74 34 22 15 19 18 14 10 8 7 15 10 8 6 2 0 353 353 3 2 360 357 355 356 354 353 352 354 357 357
148 98 54 35 34 21 25 20 15 12 16 16 11 14 10 6 359 360 353 357 5 7 7 3 358 1 358 356 357 2 7 3
164 148 148 51 36 26 30 23 27 23 20 21 12 19 7 4 356 354 359 4 9 9 8 4 1 7 4 3 2 7 9 13
167 177 147 129 98 37 63 23 38 37 30 27 12 15 18 7 355 355 8 11 17 15 11 10 6 10 10 5 7 7 12 10
170 167 154 114 78 74 45 45 37 35 31 24 17 14 10 9 6 6 14 21 23 20 13 11 13 11 10 12 9 7 13 18
162 150 140 117 85 57 51 44 42 39 31 28 17 12 12 11 12 16 20 23 22 28 22 14 24 15 12 11 8 11 17 22
153 145 144 121 93 76 66 51 48 44 38 28 19 17 17 16 22 25 24 27 23 25 24 22 21 23 14 10 4 13 16 27